Flag for Germany Weather past 2 weeks in Viernheim, Hesse, Germany

Now
52 °F

Low clouds.


Feels Like: 49 °F
Forecast: 42 / 53 °F
Wind: 9 mph from South

Location: Baden Wurttemberg - Neuostheim

Current Time: Dec 18, 2014 at 3:13:18 PM

Latest Report: Dec 18, 2014 at 2:50 PM


Visibility: N/A

Pressure: 29.98 "Hg

Humidity: 94%

Dew point: 50 °F

Location of ViernheimLocation

Historic Weather in Viernheim — Graph

°F

Viernheim temperature yesterday

Maximum temperature yesterday: 45 °F (at 8:50 PM)
Minimum temperature yesterday: 36 °F (at 5:20 AM)
Average temperature yesterday: 41 °F

Past Weeks' High & Low Weather Summary

 TemperatureHumidityPressure
High52 °F (Dec 13, 1:50 PM)100% (Dec 6, 7:50 AM)30.45 "Hg (Dec 6, 7:50 AM)
Low34 °F (Dec 8, 8:50 PM)57% (Dec 8, 1:50 PM)29.68 "Hg (Dec 12, 4:20 PM)
Average42 °F86%30.04 "Hg
* Reported Dec 3 1:20 PM — Dec 18 1:50 PM, Viernheim, Weather by CustomWeather, © 2014

Note: Actual official high and low records may vary slightly from our data, if they occured in-between our weather recording intervals... More about our weather records

Advertising

Viernheim weather history for previous 24 hours

 ConditionsComfort  
Time TempWeatherWind HumidityBarometerVisibility
1:50 PM
Dec 18
50 °FLight rain. Mostly cloudy.8 mph100%29.98 "HgN/A
1:20 PM50 °FLight rain. Partly sunny.8 mph100%29.98 "Hg6 mi
12:50 PM50 °FLight rain. More clouds than sun.8 mph94%29.98 "HgN/A
12:20 PM50 °FMore clouds than sun.10 mph94%29.98 "HgN/A
11:50 AM50 °FCloudy.10 mph94%29.98 "HgN/A
11:20 AM50 °FPartly sunny.10 mph94%29.98 "HgN/A
10:50 AM50 °FBroken clouds.10 mph88%29.98 "HgN/A
10:20 AM50 °FBroken clouds.12 mph88%29.98 "HgN/A
9:50 AM48 °FMostly cloudy.14 mph94%29.95 "HgN/A
9:20 AM48 °FCloudy.12 mph94%29.98 "HgN/A
8:50 AM48 °FBroken clouds.10 mph94%29.98 "HgN/A
8:20 AM48 °FMore clouds than sun.10 mph94%29.95 "HgN/A
7:50 AM48 °FOvercast.10 mph94%29.95 "HgN/A
7:20 AM48 °FFog.13 mph94%29.95 "HgN/A
6:50 AM48 °FPartly cloudy.12 mph94%29.95 "HgN/A
6:20 AM48 °FPassing clouds.9 mph87%29.95 "HgN/A
5:50 AM48 °FPassing clouds.9 mph87%29.95 "HgN/A
5:20 AM48 °FPartly cloudy.9 mph94%29.95 "HgN/A
9:50 PM
Dec 17
45 °FMostly cloudy.10 mph93%29.89 "HgN/A
9:20 PM45 °FMostly cloudy.9 mph93%29.89 "HgN/A
8:50 PM45 °FMostly cloudy.8 mph93%29.89 "HgN/A
8:20 PM43 °FMostly cloudy.8 mph93%29.86 "HgN/A
7:50 PM43 °FLow clouds.12 mph93%29.86 "HgN/A
7:20 PM43 °FLow clouds.8 mph93%29.83 "HgN/A
6:50 PM43 °FLow clouds.10 mph93%29.83 "Hg6 mi
6:20 PM43 °FLight rain. Partly cloudy.7 mph93%29.83 "Hg4 mi
5:50 PM43 °FLight rain. Partly cloudy.8 mph93%29.80 "Hg4 mi
5:20 PM41 °FLight rain. Fog.8 mph100%29.80 "Hg3 mi
4:50 PM41 °FLight rain. Fog.8 mph93%29.80 "Hg3 mi
4:20 PM41 °FPartly sunny.8 mph93%29.77 "Hg6 mi
3:50 PM41 °FPartly sunny.10 mph93%29.77 "Hg6 mi
3:20 PM41 °FLight rain. Low clouds.12 mph93%29.77 "Hg5 mi
Weather by CustomWeather, © 2014

See weather overviewHow to use our weather pages